Location: Rounton
(54.4000°N, 1.3500°W)
Time: 16:29:59
(UTC+00:00)

Tiros 1 - Pass Details

Date: 09 December 2021
Orbit: 629 x 664 km, 48.4° (Epoch: 19 January)

Event Time Altitude Azimuth Distance (km) Brightness Sun altitude
Rises 19:12:26 0° 255° (WSW) 2,923 11.6 -29.2°
Reaches altitude 10° 19:14:51 10° 248° (WSW) 2,019 10.5 -29.5°
Enters shadow 19:17:37 30° 222° (SW) 1,141 8.7 -29.9°
